"Time","Temp","Dewpoint","Humidity","Pressure","Direction","Speed","Gust","Precip","PrecipRate"
"00:04:58","33.9","31","89","29.85","263","0","0","0.00","0.00"
"00:09:58","33.8","30.9","89","29.85","263","0","0","0.00","0.00"
"00:14:58","33.7","30.8","89","29.85","263","0","0","0.00","0.00"
"00:19:57","33.5","30.6","89","29.85","263","0","0","0.00","0.00"
"00:24:59","33.4","30.5","89.1","29.85","263","0","0","0.00","0.00"
"00:29:58","33.3","30.7","90","29.85","263","0","0","0.00","0.00"
"00:34:57","33.3","30.7","90","29.85","263","0","0","0.00","0.00"
"00:39:58","33.3","30.7","90","29.85","263","0","0","0.00","0.00"
"00:44:56","33.2","30.6","90","29.85","263","0","0","0.00","0.00"
"00:49:59","33","30.3","89.5","29.85","263","0","0","0.00","0.00"
"00:54:58","32.8","30.2","90","29.85","263","0","0","0.00","0.00"
"00:59:57","32.9","30.5","90.8","29.85","263","0","0","0.00","0.00"
"01:04:59","32.9","30.6","91","29.85","263","0","0","0.00","0.00"
"01:09:57","32.8","30.5","91","29.85","263","0","0","0.00","0.00"
"01:14:57","32.8","30.5","91","29.85","263","0","0","0.00","0.00"
"01:19:56","32.8","30.5","91","29.85","263","0","0","0.00","0.00"
"01:24:59","32.9","30.8","91.9","29.85","263","0","0","0.00","0.00"
"01:29:57","33","30.9","92","29.86","263","0","0","0.00","0.00"
"01:34:56","33.2","31.3","92.5","29.86","263","0","0","0.00","0.00"
"01:39:45","33.5","31.7","93","29.86","263","0","0","0.00","0.00"
"01:44:59","33.8","32","93","29.86","263","0","0","0.00","0.00"
"01:49:58","34.2","32.4","93","29.86","263","0","0","0.00","0.00"
"01:54:57","34.4","32.6","93","29.86","263","0","0","0.00","0.00"
"01:59:59","34.6","32.8","93","29.86","263","0","0","0.00","0.00"
"02:04:56","34.6","32.8","93","29.86","263","0","0","0.00","0.00"
"02:09:59","34.6","32.5","92.1","29.86","263","0","0","0.00","0.00"
"02:14:59","34.7","32.6","92","29.87","263","0","0","0.00","0.00"
"02:19:58","34.8","33","92.9","29.87","263","0","0","0.00","0.00"
"02:24:57","35.1","33.2","92.6","29.87","263","0","0","0.00","0.00"
"02:29:56","35.5","33.4","92","29.87","263","0","0","0.00","0.00"
"02:34:58","35.8","33.4","91","29.87","263","0","0","0.00","0.00"
"02:39:59","36","33.5","90.2","29.87","263","0","0","0.00","0.00"
"02:44:57","36.3","33.6","90","29.87","263","0","0","0.00","0.00"
"02:49:56","36.5","33.8","90","29.87","263","0","0","0.00","0.00"
"02:54:58","36.5","33.7","89.3","29.87","263","0","0","0.00","0.00"
"02:59:57","36.5","33.5","88.4","29.87","263","0","0","0.00","0.00"
"03:04:59","36.4","33.2","88","29.87","263","0","0","0.00","0.00"
"03:09:57","36.3","33.1","88","29.87","263","0","0","0.00","0.00"
"03:14:57","36.1","32.9","88","29.87","263","0","0","0.00","0.00"
"03:19:56","35.9","32.9","88.6","29.87","263","0","0","0.00","0.00"
"03:24:58","35.7","32.6","88.3","29.87","263","0","0","0.00","0.00"
"03:29:56","35.5","32.6","89","29.87","263","0","0","0.00","0.00"
"03:34:59","35.4","32.5","89","29.86","263","0","0","0.00","0.00"
"03:39:56","35.2","32.3","89","29.86","263","0","0","0.00","0.00"
"03:44:58","35","32.1","89","29.86","263","0","0","0.00","0.00"
"03:49:56","34.8","31.9","89","29.85","263","0","0","0.00","0.00"
"03:54:59","34.6","31.8","89.3","29.85","263","0","0","0.00","0.00"
"03:59:57","34.5","31.9","90","29.85","263","0","0","0.00","0.00"
"04:04:58","34.5","32","90.7","29.85","263","0","0","0.00","0.00"
"04:09:56","34.6","32.2","91","29.85","263","0","0","0.00","0.00"
"04:14:57","34.6","32.2","91","29.85","263","0","0","0.00","0.00"
"04:19:58","34.6","32.2","91","29.85","263","0","0","0.00","0.00"
"04:24:57","34.7","32.3","91","29.85","263","0","0","0.00","0.00"
"04:29:59","34.8","32.4","91","29.85","263","0","0","0.00","0.00"
"04:34:57","34.9","32.5","91","29.85","263","0","0","0.00","0.00"
"04:39:57","35","32.6","91","29.85","263","0","0","0.00","0.00"
"04:44:59","35.2","32.8","90.8","29.85","262","0.9","3.6","0.00","0.00"
"04:49:57","35.5","32.9","90","29.85","262","0.6","3.5","0.00","0.00"
"04:54:56","35.7","33","89.5","29.85","262","0","0","0.00","0.00"
"04:59:58","35.9","33","89","29.85","262","0.1","1.2","0.00","0.00"
"05:04:59","35.9","33","88.9","29.85","262","0.1","1.2","0.00","0.00"
"05:09:58","35.9","32.7","88","29.85","262","0","0","0.00","0.00"
"05:14:58","35.9","32.7","88","29.85","262","0","1.2","0.00","0.00"
"05:19:56","35.9","32.7","88","29.85","262","0","0","0.00","0.00"
"05:24:59","35.9","32.7","88","29.85","262","0","0","0.00","0.00"
"05:29:58","35.9","32.7","88.1","29.85","263","0.3","2.4","0.00","0.00"
"05:34:57","35.9","33","89","29.85","263","0","0","0.00","0.00"
"05:39:58","35.9","33","89","29.85","263","0","0","0.00","0.00"
"05:44:56","35.9","33","89","29.85","263","0","0","0.00","0.00"
"05:49:59","35.9","33","89","29.85","263","0.1","1.2","0.00","0.00"
"05:54:58","35.9","33","89","29.85","263","0","0","0.00","0.00"
"05:59:56","35.8","32.7","88.5","29.85","263","0","0","0.00","0.00"
"06:04:58","35.7","32.5","88","29.85","263","0","0","0.00","0.00"
"06:09:57","35.6","32.4","88","29.85","263","0","1.2","0.00","0.00"
"06:14:57","35.5","32.3","88","29.86","263","0","0","0.00","0.00"
"06:19:56","35.4","32.4","88.5","29.86","263","0.3","1.2","0.00","0.00"
"06:24:58","35.3","32.4","89","29.86","263","0","1.2","0.00","0.00"
"06:29:56","35.3","32.2","88.5","29.86","263","0","0","0.00","0.00"
"06:34:58","35.1","32.2","89","29.86","263","0.2","1.2","0.00","0.00"
"06:39:58","35","32.1","89","29.86","263","0.1","1.2","0.00","0.00"
"06:44:56","34.9","32","89","29.86","263","0","0","0.00","0.00"
"06:49:59","34.9","32.2","89.6","29.86","263","0","0","0.00","0.00"
"06:54:57","34.9","32.3","90","29.86","263","0","0","0.00","0.00"
"06:59:59","35","32.4","90","29.86","263","0","0","0.00","0.00"
"07:04:56","35","32.6","91","29.86","263","0","0","0.00","0.00"
"07:09:58","35.1","32.7","91","29.86","263","0","0","0.00","0.00"
"07:14:58","35.1","32.7","91","29.87","263","0","0","0.00","0.00"
"07:19:56","35.2","32.6","90","29.87","263","0","0","0.00","0.00"
"07:24:58","35.3","32.7","90","29.87","263","0","0","0.00","0.00"
"07:29:56","35.4","32.8","90","29.87","263","0","0","0.00","0.00"
"07:34:59","35.6","33","90","29.87","263","0","0","0.00","0.00"
"07:39:59","35.9","33","89.3","29.87","263","0","0","0.00","0.00"
"07:44:58","36.1","33.2","89","29.87","263","0","0","0.00","0.00"
"07:49:56","36.3","33.4","89","29.87","263","0","0","0.00","0.00"
"07:54:58","36.6","33.5","88.4","29.87","263","0","0","0.00","0.00"
"07:59:57","36.9","33.5","87.3","29.87","263","0","1.2","0.00","0.00"
"08:04:58","37.2","33.7","87","29.87","263","0.1","1.2","0.00","0.00"
"08:09:56","37.5","34","87","29.87","263","0.2","2.4","0.00","0.00"
"08:14:56","37.8","34.3","87.2","29.88","263","0","1.2","0.00","0.00"
"08:19:58","38.1","34.3","86.2","29.88","261","0.1","3.6","0.00","0.00"
"08:24:59","38.4","34.5","85.5","29.88","256","0.5","3.5","0.00","0.00"
"08:29:57","38.7","34.7","85.3","29.89","244","0.1","2.4","0.00","0.00"
"08:34:58","39.1","35","85","29.89","244","0.6","3.6","0.00","0.00"
"08:39:58","39.4","35","84.1","29.89","215","1.5","6","0.00","0.00"
"08:44:57","39.8","35.1","83","29.89","185","1.5","5.8","0.00","0.00"
"08:49:59","40.2","35.4","82.9","29.89","185","1.5","3.6","0.00","0.00"
"08:54:56","40.6","35.3","81.2","29.89","189","1.5","6","0.00","0.00"
"08:59:58","41","35.4","80.3","29.89","190","2","3.6","0.00","0.00"
"09:04:59","41.5","35.9","80.2","29.89","191","2.1","4.8","0.00","0.00"
"09:09:57","42.1","36.3","79.8","29.89","192","1.4","3.6","0.00","0.00"
"09:14:57","43","36.7","78.3","29.90","195","3.3","8.4","0.00","0.00"
"09:19:59","44","36.9","76","29.90","182","2.8","5.8","0.00","0.00"
"09:24:57","45.2","36.8","72.3","29.90","202","4.6","10.8","0.00","0.00"
"09:29:59","45.9","36.5","69.5","29.90","224","2.7","6","0.00","0.00"
"09:34:57","46.4","36","66.8","29.90","250","3.4","6","0.00","0.00"
"09:39:56","47.1","36.1","65.5","29.90","207","4.1","8.4","0.00","0.00"
"09:44:58","47.6","36.3","64.6","29.90","190","3.7","7.2","0.00","0.00"
"09:49:56","48.2","36.1","62.8","29.90","210","5.2","10.8","0.00","0.00"
"09:54:58","48.5","35.7","61.1","29.90","215","4.9","10.8","0.00","0.00"
"09:59:56","48.7","35.7","60.5","29.90","205","5.3","15","0.00","0.00"
"10:04:57","48.9","35.4","59.6","29.90","181","4.3","8.4","0.00","0.00"
"10:09:59","49.2","35.1","58.3","29.90","190","6.2","15","0.00","0.00"
"10:14:59","49","35.1","58.6","29.91","203","4.7","9.2","0.00","0.00"
"10:19:57","49.2","35.8","59.8","29.91","236","4","10.8","0.00","0.00"
"10:24:59","49.7","35.9","58.9","29.91","211","4.5","15","0.00","0.00"
"10:29:57","50.1","35.2","56.4","29.91","250","4.1","8.4","0.00","0.00"
"10:34:59","50.3","36.3","58.4","29.91","222","4.4","9.6","0.00","0.00"
"10:39:59","50.5","35.6","56.5","29.91","197","5.6","15","0.00","0.00"
"10:44:57","50.5","35.5","56.4","29.91","214","7.2","15","0.00","0.00"
"10:49:59","50.1","34.7","55.3","29.91","229","6.1","13.2","0.00","0.00"
"10:54:57","49.5","34.7","56.6","29.91","215","4.4","14.4","0.00","0.00"
"10:59:59","49.2","34.5","56.7","29.91","204","6.6","15","0.00","0.00"
"11:04:57","49","34.4","57","29.91","212","7","15","0.00","0.00"
"11:09:59","49","34.7","57.5","29.91","222","6","13.2","0.00","0.00"
"11:14:58","49.4","35.6","58.9","29.91","221","4.8","13.2","0.00","0.00"
"11:19:56","50.3","36.1","58","29.91","202","4","7.2","0.00","0.00"
"11:24:59","51.1","36.2","56.7","29.91","202","5.6","13.2","0.00","0.00"
"11:29:56","51.6","37.1","57.5","29.91","200","5.2","13.2","0.00","0.00"
"11:34:58","52.2","36.3","54.6","29.91","202","6.3","13.2","0.00","0.00"
"11:39:58","52.1","36.8","55.7","29.91","196","4.7","9.6","0.00","0.00"
"11:44:57","52.8","37.7","56.3","29.91","223","6.2","15","0.00","0.00"
"11:49:59","53.1","36.5","53.1","29.91","222","7.2","13.2","0.00","0.00"
"11:54:57","53.3","36.6","53.1","29.91","215","8.8","16.1","0.00","0.00"
"11:59:59","52.9","35.5","51.6","29.91","228","7.4","18.4","0.00","0.00"
"12:04:56","52.2","35.9","53.6","29.91","210","5.4","14.4","0.00","0.00"
"12:09:58","52.3","36.2","54.3","29.91","214","5.9","15","0.00","0.00"
"12:14:59","52.2","36.7","55.4","29.91","213","4.2","10.4","0.00","0.00"
"12:19:56","52.6","36","53.1","29.90","216","7.5","15","0.00","0.00"
"12:24:58","52.4","35.4","52.3","29.90","216","6.3","15","0.00","0.00"
"12:29:56","52.8","37","54.8","29.90","227","4.1","10.8","0.00","0.00"
"12:34:59","53.2","36.1","52.2","29.90","238","4.3","10.4","0.00","0.00"
"12:39:59","53.4","35.7","51.1","29.90","223","4.4","8.4","0.00","0.00"
"12:44:57","53.8","36.9","52.7","29.90","223","5.4","16.1","0.00","0.00"
"12:49:59","54.3","36.4","50.8","29.89","228","6.8","13.2","0.00","0.00"
"12:54:57","53.9","35.2","49","29.89","255","5.4","15","0.00","0.00"
"12:59:57","53.5","35.7","50.8","29.89","234","5.1","8.4","0.00","0.00"
"13:04:58","54.2","36.7","51.6","29.89","230","5.1","13.2","0.00","0.00"
"13:09:56","54.8","36.6","50.3","29.89","235","6.9","16.1","0.00","0.00"
"13:14:57","55.1","36.2","48.7","29.89","228","8.9","19.6","0.00","0.00"
"13:19:59","55.2","36.4","49.1","29.89","262","4.3","11.5","0.00","0.00"
"13:24:57","55.1","36.2","48.9","29.89","232","5.7","16.1","0.00","0.00"
"13:29:59","55.3","36.5","49.1","29.89","244","6.1","17.3","0.00","0.00"
"13:34:57","55.2","35.6","47.5","29.88","264","6.8","17.3","0.00","0.00"
"13:39:57","55.7","36.9","49.3","29.88","228","7.8","17.3","0.00","0.00"
"13:44:56","55.7","35","45.6","29.88","240","8.8","19.2","0.00","0.00"
"13:49:58","55.2","35.4","47.2","29.88","233","9.1","18","0.00","0.00"
"13:54:56","55.2","36.2","48.9","29.88","241","6","13.2","0.00","0.00"
"13:59:58","55","35","46.7","29.88","266","5.8","13.2","0.00","0.00"
"14:04:56","54.6","35.4","48.2","29.88","257","5.1","13.2","0.00","0.00"
"14:09:57","54.3","35.3","48.7","29.88","250","4.5","12","0.00","0.00"
"14:14:58","54","35.1","48.8","29.89","258","5.7","13.2","0.00","0.00"
"14:19:56","53.8","35.5","49.8","29.89","257","4.3","9.6","0.00","0.00"
"14:24:59","53.2","34.5","48.9","29.89","251","4.2","9.2","0.00","0.00"
"14:29:57","53","34.9","50.2","29.89","228","5.2","12","0.00","0.00"
"14:34:59","53.1","35.8","51.7","29.89","204","4.2","10.4","0.00","0.00"
"14:39:59","53.2","35.6","51.2","29.89","209","4.7","12","0.00","0.00"
"14:44:58","53.2","35.4","50.9","29.89","243","3.4","8.4","0.00","0.00"
"14:49:56","53.2","35.8","51.5","29.89","223","6.2","16.8","0.00","0.00"
"14:54:59","53.3","35.5","50.8","29.89","222","5.8","17.3","0.00","0.00"
"14:59:57","53.3","35.5","50.8","29.89","222","3.9","10.8","0.00","0.00"
"15:04:59","53.3","36.1","52.1","29.88","221","3.4","12","0.00","0.00"
"15:09:57","53.4","35.9","51.4","29.88","215","4.4","11.5","0.00","0.00"
"15:14:57","53.6","35.9","50.9","29.89","226","4.1","18","0.00","0.00"
"15:19:59","54.4","35.8","49.5","29.89","229","6.6","16.1","0.00","0.00"
"15:24:57","54.4","35.9","49.6","29.89","285","2.4","10.4","0.00","0.00"
"15:29:59","54.2","36.2","50.6","29.89","233","2.9","6","0.00","0.00"
"15:34:58","53.9","36.3","51.1","29.89","209","4.4","12","0.00","0.00"
"15:39:58","53.6","35.8","50.9","29.89","220","5.7","13.2","0.00","0.00"
"15:44:56","53.1","35.4","51","29.90","225","5.7","10.8","0.00","0.00"
"15:49:58","52.9","35.8","52.1","29.90","225","3.4","7.2","0.00","0.00"
"15:54:56","52.9","35.6","51.8","29.90","259","2.5","7.2","0.00","0.00"
"15:59:59","52.7","35.4","51.6","29.90","261","4.4","14.4","0.00","0.00"
"16:04:56","52.5","34.9","51.1","29.90","233","4.8","15","0.00","0.00"
"16:09:58","52.3","35.1","51.7","29.90","252","4.4","12","0.00","0.00"
"16:14:58","52.3","34.8","51.3","29.91","230","4.9","12","0.00","0.00"
"16:19:56","52.3","35.2","52","29.91","209","2.8","6","0.00","0.00"
"16:24:58","52.4","35","51.5","29.91","245","3.5","8.4","0.00","0.00"
"16:29:56","52.4","35.2","51.9","29.91","233","4.2","8.4","0.00","0.00"
"16:34:57","52.4","35.4","52.2","29.91","227","3.5","8.4","0.00","0.00"
"16:39:57","52.4","35.7","52.9","29.91","204","2.5","4.8","0.00","0.00"
"16:44:59","52.4","35.9","53.3","29.91","202","3.3","6","0.00","0.00"
"16:49:57","52.4","35.7","52.9","29.91","185","3","5.8","0.00","0.00"
"16:54:58","52.4","35.8","53","29.91","237","3","7.2","0.00","0.00"
"16:59:57","52.3","36.3","54.2","29.91","233","2.3","4.8","0.00","0.00"
"17:04:58","52.7","36.1","53.3","29.91","222","3.3","8.4","0.00","0.00"
"17:09:56","53.3","36.1","52","29.91","221","4.5","9.6","0.00","0.00"
"17:14:56","53.7","35.6","50.2","29.91","241","2.8","9.2","0.00","0.00"
"17:19:58","53.5","36","51.5","29.91","213","3","6","0.00","0.00"
"17:24:56","53.1","36.4","53","29.91","218","2.7","6","0.00","0.00"
"17:29:59","52.6","35.8","52.6","29.91","221","1.8","4.6","0.00","0.00"
"17:34:57","52.2","36","53.8","29.91","236","3.1","8.4","0.00","0.00"
"17:39:57","51.8","35.6","53.8","29.91","237","2.5","6","0.00","0.00"
"17:44:56","51.6","35.4","54","29.91","215","2.4","4.8","0.00","0.00"
"17:49:58","51.4","35.6","54.5","29.91","216","3","7.2","0.00","0.00"
"17:54:57","51.3","35.6","55","29.91","217","2","4.6","0.00","0.00"
"17:59:59","51.1","35.8","55.8","29.92","217","1.6","3.6","0.00","0.00"
"18:04:56","50.9","36.3","57.1","29.92","217","1.1","2.4","0.00","0.00"
"18:09:59","50.8","36.3","57.3","29.92","217","1.1","3.6","0.00","0.00"
"18:14:59","50.7","36.7","58.5","29.93","217","0.6","3.5","0.00","0.00"
"18:19:57","50.5","36.2","57.7","29.93","217","1","2.4","0.00","0.00"
"18:24:56","50.4","36.3","58.3","29.93","217","1","3.6","0.00","0.00"
"18:29:58","50.1","35.8","57.8","29.93","228","0.4","3.5","0.00","0.00"
"18:34:57","49.9","35.5","57.5","29.93","256","1.7","6","0.00","0.00"
"18:39:57","49.7","35","56.9","29.93","285","3","7.2","0.00","0.00"
"18:44:59","49.4","35","57.4","29.94","256","2.6","6","0.00","0.00"
"18:49:58","49.2","34.8","57.5","29.94","226","2.5","6","0.00","0.00"
"18:54:56","49","34.9","58","29.94","215","1.4","3.6","0.00","0.00"
"18:59:58","48.8","34.7","58","29.95","215","1.4","3.6","0.00","0.00"
"19:04:56","48.5","34.7","58.8","29.95","215","0.4","1.2","0.00","0.00"
"19:09:58","48.1","34.9","60.1","29.95","215","0.5","2.4","0.00","0.00"
"19:14:59","47.6","35","61.5","29.96","215","0.4","2.4","0.00","0.00"
"19:19:57","47.2","34.7","61.8","29.96","215","0","0","0.00","0.00"
"19:24:59","46.8","34.9","63","29.96","215","0","1.2","0.00","0.00"
"19:29:58","46.4","35.2","64.8","29.97","215","0","1.2","0.00","0.00"
"19:34:57","46","35.1","65.4","29.97","215","0.1","1.2","0.00","0.00"
"19:39:57","45.6","35.3","67.2","29.97","215","0","0","0.00","0.00"
"19:44:59","45.1","35.2","67.9","29.97","215","0","0","0.00","0.00"
"19:49:58","44.8","35","68.2","29.97","215","0.9","2.4","0.00","0.00"
"19:54:56","44.6","34.6","67.8","29.97","214","0.3","3.6","0.00","0.00"
"19:59:58","44.6","34.6","67.8","29.98","227","1.8","6","0.00","0.00"
"20:04:59","44.7","34.6","67.5","29.98","229","2.4","8.4","0.00","0.00"
"20:09:58","45.2","34.4","65.8","29.98","210","2.6","6.9","0.00","0.00"
"20:14:58","45.6","34.5","65","29.98","204","3.1","6","0.00","0.00"
"20:19:56","46","34.6","64.3","29.98","205","3.3","7.2","0.00","0.00"
"20:24:58","46.3","34.6","63.5","29.98","203","2.4","4.8","0.00","0.00"
"20:29:59","46.4","34.6","63.3","29.99","203","1.6","4.6","0.00","0.00"
"20:34:58","46.3","34.8","64.2","29.99","203","0.2","2.4","0.00","0.00"
"20:39:58","46.1","34.6","64","29.99","203","0.2","2.4","0.00","0.00"
"20:44:56","45.8","34.7","64.8","29.99","203","0.2","1.2","0.00","0.00"
"20:49:59","45.5","35","66.3","29.99","203","0.7","2.4","0.00","0.00"
"20:54:57","45.2","34.7","66.5","29.99","203","0.5","2.4","0.00","0.00"
"20:59:59","45.1","34.6","66.7","29.99","203","0.4","2.4","0.00","0.00"
"21:04:57","44.9","34.8","67.3","29.99","203","0.4","2.3","0.00","0.00"
"21:09:59","44.8","34.7","67.4","29.99","203","0.8","2.4","0.00","0.00"
"21:14:59","44.9","35.1","68.5","29.99","203","0.8","3.6","0.00","0.00"
"21:19:57","44.9","35.2","68.7","29.99","203","0.1","1.2","0.00","0.00"
"21:24:59","44.8","35.5","69.7","29.99","203","0","1.2","0.00","0.00"
"21:29:58","44.7","35.6","70.3","29.99","203","0.3","1.2","0.00","0.00"
"21:34:56","44.5","35.6","70.7","29.99","203","0","0","0.00","0.00"
"21:39:56","44.3","35.2","70.2","29.99","203","0","0","0.00","0.00"
"21:44:58","44","35.3","71.2","30.00","203","0","1.2","0.00","0.00"
"21:49:59","43.6","35.6","73.4","30.00","203","0.4","1.2","0.00","0.00"
"21:54:57","43.1","35.6","74.9","30.00","203","0","1.2","0.00","0.00"
"21:59:59","42.6","35.6","76","30.00","203","0","1.2","0.00","0.00"
"22:04:57","42.2","35.2","76","30.00","203","0.2","1.2","0.00","0.00"
"22:09:59","42","35","76","30.00","203","0.3","2.4","0.00","0.00"
"22:14:59","41.9","35","76.1","30.01","203","0","1.2","0.00","0.00"
"22:19:58","41.8","35.1","77","30.01","203","0.3","1.2","0.00","0.00"
"22:24:56","41.5","34.8","77","30.01","203","0.5","2.4","0.00","0.00"
"22:29:59","41.2","34.7","77.5","30.01","203","0","0","0.00","0.00"
"22:34:57","41","34.5","77.7","30.01","203","0.2","1.2","0.00","0.00"
"22:39:57","40.8","34.5","78","30.01","203","0.5","2.4","0.00","0.00"
"22:44:56","40.8","34.5","78.1","30.02","203","0.2","1.2","0.00","0.00"
"22:49:57","40.7","34.7","79","30.02","203","0.2","1.2","0.00","0.00"
"22:54:56","40.6","34.6","79","30.02","203","0.1","1.2","0.00","0.00"
"22:59:58","40.6","34.5","78.7","30.02","203","0","0","0.00","0.00"
"23:04:56","40.5","34.5","78.9","30.02","203","0","0","0.00","0.00"
"23:09:58","40.4","34.2","78.4","30.02","203","0.6","2.4","0.00","0.00"
"23:14:58","40.5","34.2","78","30.02","203","0.3","2.4","0.00","0.00"
"23:19:56","40.4","34.1","78","30.02","203","0","2.4","0.00","0.00"
"23:24:59","40.4","34.3","78.9","30.02","203","0","0","0.00","0.00"
"23:29:57","40.2","34.4","79.7","30.02","203","0.3","2.4","0.00","0.00"
"23:34:59","40","34.1","79.5","30.02","203","0","0","0.00","0.00"
"23:39:56","39.9","33.9","79","30.02","203","0.9","3.6","0.00","0.00"
"23:44:58","39.9","33.9","79","30.02","203","0","2.3","0.00","0.00"
"23:49:56","39.8","34.1","80.1","30.02","203","0","0","0.00","0.00"
"23:54:58","39.6","34.3","81","30.02","203","0","0","0.00","0.00"
